TimeMDT,TemperatureF,Dew PointF,Humidity,Sea Level PressureIn,VisibilityMPH,Wind Direction,Wind SpeedMPH,Gust SpeedMPH,PrecipitationIn,Events,Conditions,WindDirDegrees,DateUTC
12:53 AM,46.9,45.0,93,30.04,10.0,Calm,Calm,-,N/A,,Clear,0,2013-08-27 06:53:00
1:53 AM,44.1,42.1,93,30.07,10.0,Calm,Calm,-,N/A,,Clear,0,2013-08-27 07:53:00
2:53 AM,43.0,42.1,97,30.06,10.0,NE,4.6,-,N/A,,Clear,40,2013-08-27 08:53:00
3:53 AM,41.0,39.9,96,30.08,10.0,ENE,5.8,-,N/A,,Clear,60,2013-08-27 09:53:00
4:53 AM,42.1,41.0,96,30.06,10.0,Calm,Calm,-,N/A,,Clear,0,2013-08-27 10:53:00
5:53 AM,41.0,39.9,96,30.09,10.0,Calm,Calm,-,N/A,,Scattered Clouds,0,2013-08-27 11:53:00
6:53 AM,41.0,39.0,93,30.17,10.0,Calm,Calm,-,N/A,,Clear,0,2013-08-27 12:53:00
7:53 AM,48.0,44.1,86,30.12,10.0,NE,3.5,-,N/A,,Clear,40,2013-08-27 13:53:00
8:53 AM,54.0,46.0,75,30.10,10.0,Calm,Calm,-,N/A,,Clear,0,2013-08-27 14:53:00
9:53 AM,57.9,45.0,62,30.07,10.0,Calm,Calm,-,N/A,,Clear,0,2013-08-27 15:53:00
10:53 AM,64.0,44.1,48,30.04,10.0,Variable,3.5,-,N/A,,Clear,0,2013-08-27 16:53:00
11:53 AM,66.0,39.0,37,30.02,10.0,Variable,3.5,-,N/A,,Clear,0,2013-08-27 17:53:00
12:53 PM,66.0,39.9,38,30.00,10.0,Calm,Calm,-,N/A,,Scattered Clouds,0,2013-08-27 18:53:00
1:53 PM,71.1,34.0,26,29.97,10.0,South,9.2,17.3,N/A,,Overcast,190,2013-08-27 19:53:00
2:53 PM,71.1,28.0,20,29.96,10.0,WSW,5.8,-,N/A,,Scattered Clouds,240,2013-08-27 20:53:00
3:53 PM,72.0,32.0,23,29.95,10.0,South,11.5,18.4,N/A,,Scattered Clouds,190,2013-08-27 21:53:00
4:53 PM,73.0,32.0,22,29.92,10.0,SSE,9.2,-,N/A,,Partly Cloudy,160,2013-08-27 22:53:00
5:53 PM,71.1,32.0,24,29.94,10.0,South,10.4,20.7,N/A,,Overcast,180,2013-08-27 23:53:00
6:53 PM,66.9,42.1,40,29.98,10.0,SE,10.4,19.6,N/A,Thunderstorm,Mostly Cloudy,130,2013-08-28 00:53:00
7:24 PM,62.6,42.8,48,30.46,10.0,ENE,3.5,-,N/A,,Clear,70,2013-08-28 01:24:00
7:53 PM,61.0,39.9,46,29.98,10.0,ESE,4.6,-,N/A,,Clear,120,2013-08-28 01:53:00
8:53 PM,57.0,42.1,57,29.99,10.0,North,3.5,-,N/A,,Clear,350,2013-08-28 02:53:00
9:53 PM,55.9,43.0,62,29.99,10.0,NE,3.5,-,N/A,,Mostly Cloudy,50,2013-08-28 03:53:00
10:53 PM,55.0,41.0,59,29.96,10.0,Calm,Calm,-,N/A,,Clear,0,2013-08-28 04:53:00
11:53 PM,51.1,43.0,74,29.97,10.0,NE,3.5,-,N/A,,Partly Cloudy,50,2013-08-28 05:53:00